,

(GMT )
Meknes

Weather History for GMFM - November, 2013

Change the Weather History Date:

Friday, November 8, 2013

  Actual Average Record
Temperature  
Mean Temperature 62 °F -  
Max Temperature 69 °F - - ()
Min Temperature 55 °F - - ()
Degree Days  
Heating Degree Days 3    
Growing Degree Days 12 (Base 50)    
Moisture  
Dew Point 51 °F    
Average Humidity 71    
Maximum Humidity 94    
Minimum Humidity 35    
Precipitation  
Precipitation 0.00 in - - ()
Sea Level Pressure  
Sea Level Pressure 30.21 in    
Wind  
Wind Speed 3 mph ()    
Max Wind Speed 8 mph    
Max Gust Speed -    
Visibility 3.8 miles    
Events      
T = Trace of Precipitation, MM = Missing Value Source: Averaged Metar Reports

Daily Weather History Graph

Daily Weather History Graph

Search for Another Location

Airport or City:

Trip Planner

Search our weather history database for the weather conditions in past years. The results will help you decide how hot, cold, wet, or windy it might be!

Date:

Astronomy

Nov. 08, 2013 Rise Set
Actual Time 6:47 AM WET 5:23 PM WET
Civil Twilight 6:21 AM WET 5:49 PM WET
Nautical Twilight 5:51 AM WET 6:19 PM WET
Astronomical Twilight 5:22 AM WET 6:48 PM WET
Moon 11:32 AM WET (11/8) 10:27 PM WET (11/8)
Length of Visible Light 11h 27m
Length of Day
10h 35m
Waxing Crescent, 30% of the Moon is Illuminated
Nov 8
Waxing Crescent
Nov 10
First Quarter
Nov 17
Full
Nov 25
Last Quarter
Dec 3
New

Hourly Weather History & Observations

Time (WET) Temp. Dew Point Humidity Pressure Visibility Wind Dir Wind Speed Gust Speed Precip Events Conditions
12:00 AM 58 °F 53 °F 77% 30.21 in 4 mi WNW 4.6 mph - -   Mostly Cloudy
12:00 AM 59.0 °F 53.6 °F 82% 30.24 in 3.7 mi WNW 4.6 mph - N/A   Mostly Cloudy
1:00 AM 59.0 °F 53.6 °F 82% 30.24 in 3.7 mi WNW 3.5 mph - N/A   Mostly Cloudy
2:00 AM 57.2 °F 51.8 °F 82% 30.21 in 3.7 mi West 2.3 mph - N/A   Mostly Cloudy
3:00 AM 58 °F 52 °F 75% 30.17 in 4 mi Calm Calm - -   Mostly Cloudy
3:00 AM 57.2 °F 51.8 °F 82% 30.18 in 3.7 mi Calm Calm - N/A   Mostly Cloudy
4:00 AM 57.2 °F 51.8 °F 82% 30.18 in 3.7 mi NNE 2.3 mph - N/A   Mostly Cloudy
5:00 AM 59.0 °F 51.8 °F 77% 30.18 in 3.7 mi Calm Calm - N/A   Mostly Cloudy
6:00 AM 58 °F 52 °F 73% 30.16 in 4 mi ESE 2.3 mph - -   Mostly Cloudy
6:00 AM 59.0 °F 53.6 °F 82% 30.18 in 3.7 mi ESE 2.3 mph - N/A   Mostly Cloudy
7:00 AM 59.0 °F 51.8 °F 77% 30.18 in 3.7 mi NE 2.3 mph - N/A   Mostly Cloudy
7:40 AM 57.2 °F 55.4 °F 94% 30.21 in 2.5 mi WNW 3.5 mph - N/A   Overcast
8:00 AM 57.2 °F 51.8 °F 82% 30.21 in 2.5 mi NW 4.6 mph - N/A   Overcast
8:50 AM 57.2 °F 50.0 °F 77% 30.24 in 3.1 mi WNW 4.6 mph - N/A   Mostly Cloudy
9:00 AM 57 °F 50 °F 72% 30.22 in 3 mi NW 4.6 mph - -   Mostly Cloudy
9:00 AM 57.2 °F 51.8 °F 82% 30.24 in 3.1 mi NW 4.6 mph - N/A   Mostly Cloudy
10:00 AM 59.0 °F 50.0 °F 72% 30.24 in 3.1 mi West 2.3 mph - N/A   Mostly Cloudy
11:00 AM 59.0 °F 50.0 °F 72% 30.24 in 3.1 mi NW 5.8 mph - N/A   Mostly Cloudy
12:00 PM 62 °F 50 °F 55% 30.19 in 4 mi WSW 3.5 mph - -   Mostly Cloudy
12:00 PM 60.8 °F 50.0 °F 68% 30.24 in 3.7 mi WSW 3.5 mph - N/A   Mostly Cloudy
1:00 PM 64.4 °F 50.0 °F 59% 30.21 in 3.7 mi Calm Calm - N/A   Mostly Cloudy
2:00 PM 66.2 °F 48.2 °F 52% 30.18 in 3.7 mi West 4.6 mph - N/A   Partly Cloudy
3:00 PM 68 °F 47 °F 35% 30.13 in 5 mi NW 3.5 mph - -   Scattered Clouds
3:00 PM 68.0 °F 48.2 °F 49% 30.18 in 5.0 mi NW 3.5 mph - N/A   Partly Cloudy
4:00 PM 68.0 °F 48.2 °F 49% 30.18 in - Calm Calm - N/A   Clear
5:00 PM 66.2 °F 48.2 °F 52% 30.18 in - NW 4.6 mph - N/A   Clear
6:00 PM 63 °F 50 °F 53% 30.16 in 6 mi NW 8.1 mph - -   Clear
6:00 PM 62.6 °F 50.0 °F 63% 30.21 in - NW 8.1 mph - N/A   Clear
7:00 PM 60.8 °F 50.0 °F 68% 30.21 in - NW 8.1 mph - N/A   Clear
8:00 PM 59.0 °F 50.0 °F 72% 30.24 in - WNW 4.6 mph - N/A   Clear
9:00 PM 58 °F 52 °F 74% 30.22 in 6 mi NW 6.9 mph - -   Scattered Clouds
9:00 PM 59.0 °F 51.8 °F 77% 30.24 in - NW 6.9 mph - N/A   Clear
10:00 PM 55.4 °F 51.8 °F 88% 30.24 in - West 3.5 mph - N/A   Clear
11:00 PM 55.4 °F 51.8 °F 88% 30.24 in - SW 2.3 mph - N/A   Clear